STARLINK-33796 (63515 NORAD) Tracking and Keplerian Element Data

This shows tracking and keplerian element data for the satellite.

Feedback or suggestion? Click here.




ElementValue
Catalog63515
NameSTARLINK-33796
Epoch Orbit4059
Epoch Day354.14432274
Epoch Year2025
RAAN149.1854
Inclination53.1586
Eccentricity0.0001289
Argument of Perigee81.815
Mean Anonmoly278.2997
Mean Motion15.3020002
Decay Rate0.00023862
L11 63515U 25071Y 25354.14432274 .00023862 00000+0 81520-3 0 9990
L22 63515 53.1586 149.1854 0001289 81.8150 278.2997 15.30200020 40590



Live tracking and technical data element details for STARLINK-33796 (NORAD 63515). STARLINK-33796 can be tracked NOW for your location showing map with azimuth and elevation plus other details from your city location.







IsCatalogInMostPopularTable: catalog: 63515, numindb: 6
Update: records affected: 1



GetName: 63515 STARLINK-33796

Hit Count: updated at: Tue, 21 Apr 2026 20:23:31 GMT